Details From YEML - Emerald
To YBRK - Rockhampton
Flight Number -
Tags decoded
Created
Modified
Stats Distance 128 nm / 237 km
Max Altitude 0 ft / 0 m
Waypoints 4
Social Downloads 11
Likes 0
Share

Download

Looking for another format? Having issues loading an existing format? Contact us
Advertisement - Login to hide

Notes

Requested: YEML EML RK YBRK

Route

YEML EML RK YBRK

ID Type Via Altitude (ft/m) Position (lat/lon) Dist (leg/tot) Name
O YEML APT - 0 / 0 -23.56830 / 148.17800 - / 0 nm Emerald
EML NDB - 0 / 0 -23.56750 / 148.17100 0 / 0 nm EMERALD
RK VOR - 0 / 0 -23.38280 / 150.47200 127 / 127 nm ROCKHAMPTON
O YBRK APT - 0 / 0 -23.37880 / 150.47300 0 / 127 nm Rockhampton

Altitude Profile

Advertisement - Login to hide

YEML

Details ICAO YEML (EMD)
Name Emerald
Region Australia
Timezone Australia/Brisbane (UTC+10.0)
Stats Elevation 623 ft / 190 m (AMSL)
Location -23.568300° 148.178000°
Runways 2
Magnetic Variation 8.587° E

METAR

YEML 160300Z AUTO 21007KT 160V240 9999 // NCD 20/M00 Q1018

Decode

TAF

Not found

Departure Runways

ID Width Length Bearing (true/mag) Surface Threshold Overrun Markings Lighting
06 98 ft / 30 m 6,224 ft / 1,897 m 70.40° / 61.82° ASPHALT 0 ft / 0 m 98 ft / 30 m APP EDGE THRESHOLD
15 62 ft / 19 m 2,312 ft / 705 m 151.69° / 143.10° ASPHALT 0 ft / 0 m 0 ft / 0 m VISUAL
24 98 ft / 30 m 6,224 ft / 1,897 m 250.40° / 241.81° ASPHALT 0 ft / 0 m 102 ft / 31 m APP EDGE THRESHOLD
33 62 ft / 19 m 2,312 ft / 705 m 331.69° / 323.10° ASPHALT 0 ft / 0 m 0 ft / 0 m NONE

YBRK

Details ICAO YBRK (ROK)
Name Rockhampton
Region Australia
Timezone Australia/Brisbane (UTC+10.0)
Stats Elevation 34 ft / 10 m (AMSL)
Location -23.378800° 150.473000°
Runways 2
Magnetic Variation 9.186° E

METAR

YBRK 160300Z AUTO 21013KT 9999 // NCD 22/00 Q1016

Decode

TAF

TAF YBRK 152310Z 1600/1700 20012KT CAVOK FM160800 20006KT CAVOK

Decode

Destination Runways

ID Width Length Bearing (true/mag) Surface Threshold Overrun Markings Lighting
04 102 ft / 31 m 5,395 ft / 1,644 m 52.34° / 43.15° ASPHALT 0 ft / 0 m 20 ft / 6 m APP EDGE THRESHOLD
15 148 ft / 45 m 8,649 ft / 2,636 m 157.80° / 148.62° ASPHALT 0 ft / 0 m 0 ft / 0 m APP EDGE THRESHOLD
22 102 ft / 31 m 5,395 ft / 1,644 m 232.34° / 223.15° ASPHALT 0 ft / 0 m 0 ft / 0 m APP EDGE THRESHOLD
33 148 ft / 45 m 8,649 ft / 2,636 m 337.80° / 328.61° ASPHALT 0 ft / 0 m 0 ft / 0 m APP EDGE THRESHOLD

Popular Alternatives